�������l�o���
Date,Time,MP-1(��Sv/h),MP-2(��Sv/h),MP-3(��Sv/h),MP-4(��Sv/h),MP-5(��Sv/h),MP-6(��Sv/h),MP-7(��Sv/h),MP-8(��Sv/h),����,����(m/s),���J
2022/05/21,00:00,0.582,0.860,0.552,1.035,0.740,0.348,0.601,0.567,���k��,1.5,��
2022/05/21,00:10,0.582,0.857,0.553,1.035,0.739,0.348,0.601,0.565,�쓌,2.3,��
2022/05/21,00:20,0.580,0.858,0.552,1.036,0.739,0.349,0.602,0.566,�쓌,2.6,��
2022/05/21,00:30,0.582,0.859,0.554,1.035,0.738,0.348,0.600,0.564,�쓌,4.3,��
2022/05/21,00:40,0.583,0.860,0.551,1.037,0.739,0.349,0.599,0.565,�쓌,5.3,��
2022/05/21,00:50,0.580,0.859,0.551,1.034,0.740,0.348,0.600,0.565,��쓌,3.9,��
2022/05/21,01:00,0.580,0.856,0.551,1.034,0.739,0.349,0.600,0.565,�쓌,4.0,��
2022/05/21,01:10,0.581,0.860,0.552,1.035,0.737,0.347,0.600,0.565,��쓌,2.9,��
2022/05/21,01:20,0.580,0.859,0.552,1.034,0.738,0.349,0.601,0.566,��쓌,2.0,��
2022/05/21,01:30,0.581,0.858,0.551,1.035,0.738,0.348,0.600,0.567,�쓌,1.9,��
2022/05/21,01:40,0.580,0.858,0.551,1.034,0.739,0.349,0.601,0.566,��,0.9,��
2022/05/21,01:50,0.581,0.859,0.550,1.037,0.739,0.348,0.601,0.565,�k��,0.9,��
2022/05/21,02:00,0.579,0.859,0.552,1.034,0.741,0.349,0.601,0.565,�k,0.9,��
2022/05/21,02:10,0.580,0.858,0.551,1.034,0.738,0.349,0.601,0.564,�k�k��,0.9,��
2022/05/21,02:20,0.581,0.856,0.553,1.033,0.739,0.349,0.599,0.565,�k,1.5,��
2022/05/21,02:30,0.580,0.857,0.551,1.035,0.739,0.349,0.601,0.565,�k�k��,1.7,��
2022/05/21,02:40,0.579,0.858,0.551,1.035,0.739,0.349,0.600,0.565,�k�k��,1.2,��
2022/05/21,02:50,0.581,0.859,0.549,1.033,0.739,0.348,0.600,0.564,�k�k��,0.6,��
2022/05/21,03:00,0.582,0.857,0.549,1.035,0.739,0.349,0.600,0.564,-,CALM,��
2022/05/21,03:10,0.580,0.860,0.551,1.034,0.738,0.349,0.601,0.566,��,1.1,��
2022/05/21,03:20,0.581,0.857,0.551,1.035,0.740,0.349,0.600,0.564,��쐼,1.7,��
2022/05/21,03:30,0.580,0.857,0.551,1.033,0.739,0.348,0.600,0.566,�쐼,1.7,��
2022/05/21,03:40,0.581,0.860,0.552,1.034,0.739,0.350,0.599,0.565,���쐼,1.1,��
2022/05/21,03:50,0.582,0.858,0.552,1.035,0.740,0.350,0.600,0.565,��,1.2,��
2022/05/21,04:00,0.582,0.860,0.551,1.034,0.739,0.349,0.600,0.565,��,2.2,��
2022/05/21,04:10,0.580,0.858,0.551,1.035,0.739,0.350,0.600,0.565,��,3.3,�L
2022/05/21,04:20,0.582,0.857,0.552,1.033,0.740,0.350,0.599,0.565,��,4.7,��
2022/05/21,04:30,0.582,0.858,0.552,1.035,0.740,0.349,0.600,0.565,��,4.6,��
2022/05/21,04:40,0.580,0.858,0.552,1.036,0.739,0.349,0.600,0.566,��,5.1,��
2022/05/21,04:50,0.580,0.860,0.552,1.035,0.739,0.349,0.601,0.565,��,4.9,��
2022/05/21,05:00,0.581,0.860,0.552,1.034,0.738,0.350,0.601,0.565,��,4.8,��
2022/05/21,05:10,0.582,0.858,0.551,1.036,0.740,0.349,0.601,0.565,��,4.6,��
2022/05/21,05:20,0.580,0.860,0.554,1.033,0.738,0.349,0.600,0.566,��,4.3,��
2022/05/21,05:30,0.582,0.860,0.552,1.035,0.738,0.350,0.600,0.566,��쐼,3.5,��
2022/05/21,05:40,0.582,0.860,0.552,1.035,0.740,0.349,0.601,0.565,�쐼,1.4,��
2022/05/21,05:50,0.582,0.858,0.552,1.035,0.741,0.350,0.601,0.566,���k��,0.9,��
2022/05/21,06:00,0.582,0.859,0.554,1.035,0.741,0.349,0.602,0.566,-,CALM,��
2022/05/21,06:10,0.581,0.858,0.553,1.037,0.740,0.350,0.600,0.565,��쐼,0.8,��
2022/05/21,06:20,0.581,0.857,0.553,1.036,0.740,0.349,0.601,0.567,�쓌,0.6,��
2022/05/21,06:30,0.581,0.860,0.552,1.035,0.741,0.350,0.600,0.565,-,CALM,��
2022/05/21,06:40,0.581,0.859,0.552,1.036,0.741,0.350,0.601,0.566,��,1.2,��
2022/05/21,06:50,0.582,0.858,0.552,1.034,0.739,0.350,0.600,0.567,�쐼,2.0,��
2022/05/21,07:00,0.583,0.859,0.553,1.036,0.740,0.349,0.600,0.565,�k�k��,0.8,��
2022/05/21,07:10,0.580,0.859,0.553,1.036,0.739,0.349,0.601,0.566,�k,1.5,��
2022/05/21,07:20,0.582,0.859,0.551,1.035,0.739,0.350,0.600,0.566,�k�k��,2.5,��
2022/05/21,07:30,0.582,0.860,0.553,1.038,0.740,0.350,0.599,0.568,�k,1.9,��
2022/05/21,07:40,0.583,0.860,0.553,1.037,0.740,0.349,0.600,0.566,�k,0.9,��
2022/05/21,07:50,0.581,0.859,0.551,1.035,0.741,0.348,0.599,0.566,�k�k��,1.4,��
2022/05/21,08:00,0.581,0.858,0.554,1.037,0.739,0.349,0.600,0.566,���k��,1.4,��
2022/05/21,08:10,0.582,0.858,0.553,1.037,0.739,0.348,0.600,0.565,���k��,1.2,��
2022/05/21,08:20,0.580,0.856,0.552,1.035,0.741,0.347,0.599,0.563,���k��,0.9,��
2022/05/21,08:30,0.582,0.857,0.553,1.036,0.740,0.347,0.600,0.564,�k��,0.6,��
2022/05/21,08:40,0.581,0.857,0.552,1.036,0.737,0.348,0.600,0.564,�k�k��,0.8,��
2022/05/21,08:50,0.581,0.857,0.550,1.036,0.739,0.347,0.598,0.562,�쓌,1.2,��
2022/05/21,09:00,0.580,0.857,0.551,1.035,0.738,0.349,0.600,0.563,��쓌,3.9,��
2022/05/21,09:10,0.579,0.859,0.551,1.036,0.738,0.348,0.600,0.564,��쓌,4.4,��
2022/05/21,09:20,0.580,0.857,0.551,1.037,0.737,0.349,0.599,0.563,��쓌,3.0,��
2022/05/21,09:30,0.581,0.858,0.551,1.037,0.739,0.348,0.598,0.563,��쐼,1.5,��
2022/05/21,09:40,0.579,0.859,0.554,1.035,0.738,0.347,0.601,0.564,��,1.1,��
2022/05/21,09:50,0.580,0.858,0.551,1.039,0.737,0.348,0.600,0.562,��쓌,3.7,��
2022/05/21,10:00,0.580,0.857,0.551,1.037,0.738,0.350,0.601,0.563,��쓌,5.5,��
2022/05/21,10:10,0.582,0.857,0.551,1.036,0.737,0.348,0.598,0.562,��,5.1,��
2022/05/21,10:20,0.582,0.858,0.551,1.037,0.739,0.349,0.601,0.563,��,5.3,��
2022/05/21,10:30,0.580,0.859,0.550,1.036,0.738,0.348,0.601,0.563,��,5.3,��
2022/05/21,10:40,0.580,0.859,0.550,1.036,0.738,0.347,0.601,0.563,��,6.1,��
2022/05/21,10:50,0.579,0.859,0.551,1.035,0.740,0.349,0.601,0.564,��,7.9,��
2022/05/21,11:00,0.580,0.858,0.550,1.037,0.740,0.349,0.601,0.563,��,6.8,��
2022/05/21,11:10,0.579,0.858,0.549,1.034,0.740,0.348,0.601,0.563,��쓌,6.1,��
2022/05/21,11:20,0.580,0.857,0.551,1.034,0.739,0.348,0.601,0.564,��,6.8,��
2022/05/21,11:30,0.582,0.858,0.550,1.032,0.738,0.348,0.601,0.562,��,7.6,��
2022/05/21,11:40,0.580,0.857,0.550,1.034,0.739,0.349,0.599,0.563,��,8.2,��
2022/05/21,11:50,0.581,0.858,0.552,1.035,0.738,0.347,0.601,0.563,��쓌,10.2,��
2022/05/21,12:00,0.580,0.857,0.551,1.033,0.740,0.348,0.601,0.564,��쓌,11.9,��
2022/05/21,12:10,0.581,0.858,0.551,1.033,0.742,0.349,0.600,0.562,��쓌,12.4,��
2022/05/21,12:20,0.580,0.859,0.548,1.036,0.739,0.349,0.600,0.562,��쓌,13.1,��
2022/05/21,12:30,0.582,0.856,0.551,1.034,0.740,0.349,0.600,0.564,��,11.7,��
2022/05/21,12:40,0.581,0.858,0.550,1.035,0.739,0.349,0.599,0.563,��,10.6,��
2022/05/21,12:50,0.581,0.857,0.551,1.032,0.741,0.349,0.600,0.563,��,9.8,��
2022/05/21,13:00,0.580,0.857,0.551,1.036,0.739,0.348,0.601,0.562,��쓌,11.6,��
2022/05/21,13:10,0.580,0.859,0.550,1.035,0.739,0.350,0.599,0.563,��,11.6,��
2022/05/21,13:20,0.581,0.858,0.550,1.034,0.740,0.349,0.601,0.563,��쓌,11.9,��
2022/05/21,13:30,0.580,0.859,0.549,1.034,0.741,0.347,0.600,0.564,��쓌,12.2,��
2022/05/21,13:40,0.581,0.860,0.551,1.035,0.741,0.350,0.599,0.564,��쓌,12.4,��
2022/05/21,13:50,0.580,0.859,0.550,1.036,0.740,0.349,0.599,0.563,��,11.0,��
2022/05/21,14:00,0.580,0.857,0.549,1.037,0.740,0.347,0.598,0.563,��쓌,9.7,��
2022/05/21,14:10,0.580,0.858,0.550,1.037,0.741,0.348,0.600,0.564,��,9.2,��
2022/05/21,14:20,0.580,0.858,0.551,1.037,0.739,0.349,0.600,0.564,��,8.7,��
2022/05/21,14:30,0.579,0.858,0.551,1.038,0.739,0.348,0.599,0.564,��쓌,8.9,��
2022/05/21,14:40,0.581,0.857,0.551,1.037,0.740,0.349,0.598,0.564,��쓌,8.9,��
2022/05/21,14:50,0.580,0.860,0.551,1.037,0.743,0.349,0.598,0.563,��,7.8,��
2022/05/21,15:00,0.581,0.859,0.550,1.038,0.739,0.347,0.598,0.563,��,8.9,��
2022/05/21,15:10,0.582,0.858,0.550,1.037,0.740,0.348,0.599,0.563,��,7.9,��
2022/05/21,15:20,0.580,0.860,0.551,1.039,0.740,0.348,0.598,0.564,��,8.4,��
2022/05/21,15:30,0.580,0.858,0.549,1.037,0.743,0.347,0.598,0.564,��,7.9,��
2022/05/21,15:40,0.582,0.858,0.551,1.038,0.742,0.348,0.598,0.563,��,7.4,��
2022/05/21,15:50,0.583,0.859,0.551,1.038,0.740,0.348,0.599,0.563,��,5.9,��
2022/05/21,16:00,0.582,0.861,0.550,1.037,0.741,0.349,0.600,0.563,��,6.4,��
2022/05/21,16:10,0.580,0.860,0.550,1.038,0.742,0.349,0.599,0.563,��,6.1,��
2022/05/21,16:20,0.581,0.859,0.550,1.039,0.742,0.348,0.599,0.564,��,7.9,��
2022/05/21,16:30,0.580,0.858,0.550,1.039,0.741,0.349,0.598,0.563,��,6.6,��
2022/05/21,16:40,0.582,0.860,0.550,1.037,0.741,0.348,0.598,0.565,��,7.4,��
2022/05/21,16:50,0.580,0.858,0.549,1.039,0.740,0.347,0.598,0.564,��,7.3,��
2022/05/21,17:00,0.581,0.858,0.550,1.040,0.741,0.347,0.599,0.564,��,7.1,��
2022/05/21,17:10,0.580,0.859,0.550,1.038,0.741,0.348,0.599,0.564,��,6.5,��
2022/05/21,17:20,0.582,0.858,0.550,1.040,0.741,0.349,0.597,0.565,��,7.1,��
2022/05/21,17:30,0.581,0.860,0.550,1.040,0.741,0.347,0.599,0.563,��,7.7,��
2022/05/21,17:40,0.581,0.859,0.550,1.040,0.741,0.349,0.598,0.564,��,7.2,��
2022/05/21,17:50,0.581,0.858,0.550,1.039,0.741,0.347,0.599,0.565,��,7.7,��
2022/05/21,18:00,0.580,0.861,0.550,1.041,0.739,0.349,0.600,0.565,��쓌,7.1,��
2022/05/21,18:10,0.579,0.859,0.551,1.039,0.741,0.346,0.599,0.565,��,6.7,��
2022/05/21,18:20,0.581,0.860,0.552,1.039,0.741,0.348,0.599,0.566,��,6.8,��
2022/05/21,18:30,0.581,0.860,0.550,1.040,0.741,0.346,0.601,0.568,��,6.6,��
2022/05/21,18:40,0.581,0.860,0.551,1.040,0.742,0.347,0.598,0.564,��,7.1,��
2022/05/21,18:50,0.581,0.862,0.551,1.040,0.740,0.348,0.599,0.566,��,5.7,��
2022/05/21,19:00,0.581,0.861,0.553,1.038,0.739,0.348,0.599,0.565,��,5.7,��
2022/05/21,19:10,0.579,0.859,0.553,1.042,0.739,0.349,0.598,0.566,��,5.5,��
2022/05/21,19:20,0.582,0.863,0.552,1.040,0.741,0.348,0.600,0.565,��,5.8,��
2022/05/21,19:30,0.582,0.862,0.553,1.041,0.742,0.348,0.600,0.567,��,5.8,��
2022/05/21,19:40,0.584,0.865,0.550,1.039,0.741,0.349,0.602,0.564,��,5.0,��
2022/05/21,19:50,0.582,0.863,0.554,1.039,0.743,0.349,0.599,0.566,��,5.8,��
2022/05/21,20:00,0.582,0.863,0.553,1.041,0.740,0.350,0.599,0.567,��,5.5,��
2022/05/21,20:10,0.582,0.862,0.553,1.040,0.740,0.349,0.600,0.567,��,7.1,��
2022/05/21,20:20,0.581,0.864,0.553,1.041,0.744,0.347,0.601,0.565,��,5.8,��
2022/05/21,20:30,0.583,0.862,0.553,1.039,0.741,0.349,0.601,0.566,��,5.4,��
2022/05/21,20:40,0.584,0.863,0.554,1.041,0.739,0.349,0.602,0.566,��,4.6,��
2022/05/21,20:50,0.582,0.862,0.553,1.042,0.743,0.349,0.601,0.565,��,4.4,��
2022/05/21,21:00,0.583,0.863,0.553,1.041,0.742,0.348,0.602,0.566,��쓌,5.0,��
2022/05/21,21:10,0.584,0.862,0.553,1.041,0.743,0.347,0.601,0.566,��,4.8,��
2022/05/21,21:20,0.582,0.864,0.553,1.039,0.741,0.348,0.603,0.566,��,4.7,��
2022/05/21,21:30,0.583,0.862,0.552,1.039,0.743,0.350,0.602,0.566,��,4.5,��
2022/05/21,21:40,0.582,0.862,0.551,1.039,0.744,0.349,0.603,0.564,��,4.1,��
2022/05/21,21:50,0.583,0.864,0.554,1.041,0.743,0.349,0.601,0.566,��,4.3,��
2022/05/21,22:00,0.583,0.863,0.552,1.040,0.743,0.349,0.602,0.567,��쐼,3.6,��
2022/05/21,22:10,0.581,0.864,0.553,1.040,0.744,0.350,0.601,0.566,��쐼,3.2,��
2022/05/21,22:20,0.585,0.862,0.551,1.039,0.743,0.349,0.602,0.566,��,2.2,��
2022/05/21,22:30,0.582,0.864,0.553,1.041,0.744,0.350,0.603,0.565,��,3.0,��
2022/05/21,22:40,0.582,0.865,0.552,1.041,0.742,0.348,0.601,0.565,��,3.5,��
2022/05/21,22:50,0.582,0.863,0.554,1.041,0.744,0.349,0.603,0.566,��,3.1,��
2022/05/21,23:00,0.584,0.864,0.553,1.041,0.744,0.349,0.602,0.565,��쐼,2.6,��
2022/05/21,23:10,0.583,0.864,0.553,1.042,0.743,0.351,0.602,0.567,��쐼,1.9,�L
2022/05/21,23:20,0.583,0.863,0.551,1.039,0.743,0.350,0.604,0.567,��,3.1,�L
2022/05/21,23:30,0.583,0.863,0.552,1.042,0.743,0.351,0.603,0.567,��,2.5,��
2022/05/21,23:40,0.582,0.861,0.554,1.039,0.743,0.350,0.603,0.567,��,2.6,�L
2022/05/21,23:50,0.583,0.861,0.552,1.040,0.744,0.351,0.603,0.565,��,2.6,�L
